Vorticity
10 11 2 11 9 8 9 9 7 5 2 2 1 3 10 17 10 10 12 13 12 13 15 17 15 11 12 -16 24 11 11 31 -31 6 16 11 8 6 -1 12 5 4 10 6 7 8 6
9 9 13 12 5 1 -1 3 3 2 6 9 12 9 16 9 11 13 13 12 11 12 13 18 18 -2 -3 -6 27 21 21 -6 2 -2 15 10 9 2 14 14 5 12 1 9 8 8 7
11 12 10 15 4 5 5 3 5 8 10 5 9 15 11 10 13 11 10 11 10 10 14 20 30 -3 1 17 24 19 -21 36 -22 8 -1 12 9 7 11 5 10 4 12 8 7 7 5
10 12 11 12 11 11 11 12 11 10 13 14 13 10 10 12 12 11 9 7 10 0 21 27 21 3 -4 24 16 16 1 3 -2 -6 7 4 7 10 3 12 14 8 9 9 12 7 6
8 11 11 9 12 9 11 11 13 12 12 11 9 10 11 12 11 8 6 9 14 -7 15 14 19 7 13 -22 24 23 -14 16 -13 -7 12 7 -4 12 8 7 10 14 4 12 13 8 7
8 8 11 11 9 9 9 9 10 10 10 10 12 11 11 11 9 8 14 4 8 16 16 20 4 6 3 -4 9 0 9 0 -1 2 10 10 11 -1 7 4 6 7 7 7 1 3 5
6 8 8 12 12 10 10 10 10 10 9 9 9 10 10 6 10 10 8 12 12 12 -20 26 4 -6 29 -1 23 24 37 39 -24 -2 1 3 5 7 -1 9 4 1 3 -6 5 4 5
7 6 6 8 10 11 9 9 9 8 9 8 9 8 7 6 11 9 6 1 5 5 16 3 20 17 5 2 -5 21 6 13 5 2 5 8 3 7 6 7 7 8 5 11 7 9 9
5 6 6 5 7 9 10 8 7 8 7 9 8 6 3 9 11 11 10 13 9 15 12 12 19 7 23 11 12 5 2 2 10 7 8 7 13 6 9 7 6 7 6 -2 5 4 8
8 7 6 7 6 7 9 10 9 10 8 5 12 11 11 5 5 8 9 8 -13 -4 6 10 4 8 10 8 11 10 11 4 9 12 9 10 6 11 7 5 6 6 9 6 5 12 7
10 7 12 9 7 5 6 8 9 9 9 9 9 3 7 8 1 0 5 5 4 1 -2 18 6 15 12 -17 22 13 11 4 9 12 -2 1 17 6 6 5 6 2 5 6 6 12 14
10 11 8 10 16 12 6 6 8 7 7 6 10 9 5 5 4 6 6 7 11 9 10 10 17 14 4 17 -8 13 7 9 12 9 8 2 11 5 5 5 8 3 6 12 20 23 21
7 8 9 8 8 10 16 15 10 7 9 10 7 6 7 8 7 7 8 10 11 17 11 19 14 7 7 6 9 7 7 8 -5 7 10 10 8 6 7 9 7 11 13 14 12 11 9
6 6 7 8 8 9 7 10 12 16 17 12 8 8 7 8 7 8 10 16 14 9 15 16 10 8 6 8 10 8 7 6 8 7 7 10 17 18 15 13 -4 8 1 -4 11 9 -1
6 7 7 6 7 9 7 7 9 9 10 13 16 18 19 14 9 7 10 10 9 12 12 12 13 6 7 7 6 9 10 7 9 10 -5 10 11 17 6 8 5 19 11 11 2 15 14
5 4 5 5 6 6 7 8 8 8 10 8 7 11 10 14 16 18 15 16 10 14 12 9 7 11 9 8 7 9 13 16 17 14 10 15 7 18 8 10 10 4 7 7 15 9 11
4 4 4 4 3 4 4 5 7 8 12 12 10 4 9 12 6 6 11 12 12 10 10 6 7 9 8 8 9 6 6 6 10 8 11 7 9 -2 11 13 10 13 7 7 4 1 3
4 4 4 3 5 5 4 5 5 5 7 10 12 7 14 -1 15 11 12 14 12 4 6 8 13 11 12 8 14 7 3 3 5 4 6 9 10 8 7 5 10 7 2 4 -5 17 3
3 3 3 2 3 4 4 3 4 5 3 6 3 6 -3 6 2 6 12 5 8 9 9 6 7 10 8 10 9 12 11 14 12 8 10 11 12 10 20 26 27 14 17 20 6 -3 7
4 4 5 4 4 3 4 3 2 4 2 -1 5 5 7 -5 4 4 4 5 8 12 13 8 6 10 10 8 7 -1 1 1 4 10 10 6 11 -14 -23 4 -13 -8 -4 1 12 6 0
4 4 4 3 4 3 3 4 4 4 5 4 3 2 5 -2 5 3 2 9 2 6 7 5 4 7 8 7 8 9 10 11 10 10 10 13 5 4 5 9 7 6 3 9 3 4 -29
5 4 3 3 3 4 5 4 3 4 4 5 5 5 6 5 10 5 3 4 5 6 7 4 9 11 12 9 6 -11 -4 4 11 7 8 9 9 13 4 14 18 12 9 14 4 7 8
5 4 6 6 6 5 4 5 7 6 6 6 5 5 7 7 5 6 3 6 5 7 7 3 5 6 6 5 6 6 8 8 -1 -1 1 1 2 14 12 10 23 40 27 35 28 24 35
7 6 4 5 5 5 7 8 7 7 7 8 7 7 6 4 4 5 8 3 -1 1 2 10 9 9 8 7 7 8 5 6 6 6 6 4 8 5 7 17 26 9 22 15 10 11 12
6 8 9 8 8 7 7 6 8 9 8 9 7 6 4 5 5 7 6 -5 -5 5 11 13 11 10 11 11 12 38 27 35 30 33 20 18 14 -5 -1 2 -32 18 29 -3 9 9 4
7 6 6 6 6 7 6 7 8 7 8 8 5 3 2 5 4 6 4 -7 5 15 14 9 12 8 9 9 15 8 1 1 24 9 25 29 26 -27 19 4 -5 2 -1 0 8 12 34
-1 2 2 2 3 3 2 3 4 3 3 3 1 2 5 5 1 3 3 8 16 11 8 12 14 12 3 7 12 12 7 4 7 6 11 22 23 8 9 -19 10 -11 11 5 41 -2 9
15 13 7 4 4 3 5 8 7 9 8 8 4 7 5 8 6 8 11 10 12 8 6 -1 6 21 23 18 9 7 5 7 18 4 4 9 10 3 32 17 26 7 15 19 13 -4 -21
16 20 21 21 20 19 20 21 21 20 18 20 24 21 22 19 -4 3 1 9 16 16 12 9 2 -17 -10 2 5 17 3 20 -3 3 11 13 1 -9 -1 -15 -9 -12 -20 -20 9 20 20
Height
3096 3093 3089 3086 3085 3083 3081 3079 3077 3076 3075 3075 3074 3073 3072 3070 3069 3069 3069 3071 3073 3075 3079 3084 3089 3095 3100 3104 3106 3112 3117 3122 3126 3126 3131 3133 3138 3142 3144 3145 3147 3147 3147 3149 3149 3151 3152
3099 3096 3093 3089 3088 3087 3085 3082 3081 3080 3078 3077 3076 3075 3073 3072 3071 3072 3072 3073 3075 3077 3081 3085 3090 3096 3101 3105 3108 3111 3117 3122 3130 3125 3132 3134 3139 3140 3143 3144 3145 3146 3146 3147 3148 3150 3150
3104 3100 3096 3094 3091 3090 3088 3086 3084 3082 3081 3080 3078 3077 3076 3075 3075 3075 3075 3077 3079 3080 3082 3086 3092 3098 3103 3107 3109 3113 3119 3121 3130 3122 3130 3135 3136 3140 3142 3144 3144 3144 3145 3145 3146 3148 3148
3107 3104 3100 3098 3095 3092 3090 3088 3086 3085 3084 3083 3081 3080 3079 3079 3079 3079 3080 3081 3083 3085 3087 3089 3093 3099 3103 3107 3111 3115 3119 3121 3127 3128 3132 3134 3136 3140 3141 3143 3143 3143 3144 3144 3145 3146 3146
3110 3107 3105 3102 3099 3096 3093 3091 3090 3089 3087 3086 3085 3083 3083 3084 3083 3084 3083 3083 3086 3086 3093 3093 3097 3102 3106 3109 3114 3116 3118 3122 3128 3130 3129 3132 3137 3139 3141 3142 3144 3142 3144 3144 3144 3144 3144
3112 3109 3108 3106 3103 3101 3098 3095 3094 3093 3091 3090 3089 3088 3088 3089 3088 3088 3088 3088 3091 3093 3094 3094 3096 3104 3107 3111 3113 3117 3119 3124 3129 3132 3136 3138 3137 3138 3140 3140 3142 3143 3144 3143 3143 3141 3141
3115 3112 3110 3110 3108 3105 3103 3101 3099 3097 3096 3094 3093 3094 3093 3092 3093 3093 3093 3094 3099 3100 3098 3097 3104 3106 3108 3113 3115 3116 3120 3123 3127 3132 3132 3136 3138 3136 3138 3141 3140 3140 3141 3141 3140 3139 3137
3118 3116 3114 3113 3111 3109 3107 3105 3103 3101 3100 3099 3098 3098 3098 3097 3097 3098 3098 3098 3099 3100 3101 3104 3106 3108 3109 3111 3114 3117 3122 3126 3131 3132 3136 3139 3137 3137 3139 3140 3139 3139 3140 3140 3137 3135 3133
3118 3118 3117 3115 3114 3114 3112 3110 3108 3106 3104 3104 3103 3103 3102 3102 3101 3102 3101 3103 3103 3103 3104 3106 3109 3111 3114 3115 3118 3121 3125 3128 3131 3134 3135 3135 3135 3136 3137 3137 3136 3138 3137 3136 3135 3131 3128
3120 3120 3120 3118 3117 3116 3117 3115 3112 3111 3109 3107 3107 3105 3106 3106 3107 3106 3106 3107 3107 3107 3109 3113 3112 3114 3115 3117 3119 3121 3125 3128 3129 3131 3132 3133 3134 3134 3134 3134 3136 3135 3134 3132 3130 3129 3129
3125 3122 3122 3121 3120 3118 3118 3118 3117 3115 3113 3112 3111 3110 3109 3109 3110 3110 3111 3110 3110 3110 3112 3117 3116 3115 3116 3119 3120 3123 3125 3126 3128 3129 3132 3131 3130 3130 3131 3132 3132 3131 3130 3129 3128 3127 3125
3130 3126 3123 3124 3124 3123 3121 3120 3119 3118 3116 3114 3114 3114 3113 3113 3112 3112 3111 3110 3109 3112 3114 3117 3117 3118 3120 3120 3122 3123 3124 3126 3127 3128 3127 3127 3128 3129 3129 3129 3129 3128 3128 3126 3124 3124 3123
3134 3132 3129 3126 3124 3124 3124 3122 3121 3121 3119 3117 3116 3115 3115 3116 3115 3114 3113 3113 3113 3111 3117 3118 3118 3118 3118 3120 3122 3123 3124 3124 3125 3127 3126 3126 3127 3127 3127 3127 3127 3127 3127 3125 3124 3123 3115
3138 3135 3134 3132 3129 3127 3125 3125 3123 3122 3122 3121 3119 3117 3116 3116 3115 3115 3115 3116 3115 3116 3116 3117 3118 3120 3121 3122 3122 3122 3123 3123 3123 3124 3126 3126 3125 3124 3124 3124 3125 3124 3126 3125 3123 3116 3113
3141 3139 3137 3135 3134 3132 3129 3127 3125 3124 3123 3122 3122 3121 3119 3117 3116 3116 3116 3115 3116 3117 3118 3118 3118 3119 3121 3121 3123 3123 3123 3123 3123 3124 3127 3125 3123 3121 3121 3122 3125 3123 3122 3123 3121 3118 3117
3143 3142 3140 3139 3137 3136 3134 3131 3129 3127 3125 3124 3123 3123 3121 3120 3119 3119 3119 3117 3117 3117 3117 3118 3119 3119 3120 3121 3122 3122 3122 3121 3121 3122 3123 3122 3122 3120 3119 3120 3121 3120 3121 3120 3120 3119 3112
3145 3143 3143 3141 3140 3137 3136 3135 3133 3131 3129 3127 3126 3124 3123 3122 3121 3120 3120 3120 3120 3120 3120 3120 3119 3119 3120 3120 3119 3119 3120 3120 3120 3121 3122 3122 3121 3120 3118 3117 3116 3117 3116 3117 3117 3116 3113
3142 3143 3142 3142 3142 3141 3139 3136 3134 3133 3132 3131 3129 3128 3127 3125 3125 3122 3122 3122 3121 3120 3120 3121 3121 3120 3120 3119 3119 3120 3119 3118 3118 3118 3118 3118 3117 3116 3115 3113 3112 3112 3111 3111 3113 3112 3109
3142 3141 3141 3141 3140 3140 3139 3139 3138 3136 3134 3133 3132 3130 3129 3127 3126 3125 3123 3123 3122 3121 3121 3120 3119 3120 3120 3120 3121 3118 3117 3116 3116 3116 3115 3116 3115 3115 3111 3111 3107 3105 3105 3106 3108 3107 3102
3140 3140 3139 3139 3139 3139 3138 3138 3137 3136 3136 3135 3134 3132 3131 3129 3127 3125 3124 3123 3121 3120 3119 3119 3119 3118 3117 3117 3116 3115 3114 3115 3114 3113 3113 3112 3110 3110 3107 3106 3104 3102 3101 3101 3101 3099 3093
3137 3137 3136 3136 3136 3136 3135 3136 3135 3135 3134 3134 3132 3131 3130 3128 3126 3125 3124 3123 3121 3120 3119 3118 3117 3117 3116 3115 3114 3112 3111 3110 3110 3109 3109 3108 3105 3104 3102 3101 3099 3097 3096 3093 3089 3086 3084
3132 3132 3132 3132 3132 3132 3132 3132 3131 3131 3130 3131 3130 3129 3126 3125 3124 3123 3122 3121 3120 3119 3118 3116 3115 3113 3113 3112 3112 3110 3108 3107 3105 3103 3103 3102 3099 3095 3092 3092 3090 3087 3087 3084 3080 3077 3073
3127 3127 3127 3127 3127 3127 3127 3127 3126 3126 3126 3125 3125 3125 3123 3122 3121 3120 3118 3117 3116 3115 3114 3113 3112 3110 3108 3108 3106 3104 3103 3102 3101 3099 3098 3097 3095 3094 3088 3085 3082 3078 3070 3069 3066 3064 3063
3120 3120 3120 3120 3120 3121 3121 3121 3121 3121 3121 3121 3120 3119 3118 3116 3115 3115 3114 3112 3110 3109 3108 3107 3104 3102 3102 3100 3099 3097 3095 3094 3092 3091 3091 3090 3091 3091 3084 3085 3074 3063 3062 3061 3058 3056 3057
3112 3113 3113 3113 3113 3112 3113 3113 3114 3114 3114 3114 3113 3113 3111 3109 3110 3109 3108 3106 3104 3103 3101 3099 3097 3097 3095 3094 3092 3089 3086 3083 3080 3080 3080 3081 3083 3084 3081 3075 3060 3059 3059 3058 3054 3049 3053
3104 3105 3105 3106 3106 3106 3105 3105 3105 3105 3106 3106 3106 3105 3104 3102 3101 3102 3101 3099 3097 3095 3093 3092 3091 3090 3089 3088 3086 3082 3080 3078 3074 3070 3070 3071 3074 3080 3077 3072 3056 3052 3053 3053 3050 3042 3047
3095 3096 3096 3096 3097 3097 3097 3097 3097 3097 3097 3097 3096 3096 3095 3092 3090 3092 3091 3090 3089 3088 3086 3083 3084 3083 3083 3081 3080 3078 3072 3072 3066 3064 3062 3064 3064 3064 3066 3062 3045 3049 3048 3049 3049 3044 3041
3084 3084 3084 3085 3085 3085 3086 3086 3086 3085 3086 3084 3085 3084 3084 3079 3079 3080 3079 3080 3077 3079 3078 3075 3078 3075 3074 3074 3072 3069 3064 3065 3059 3060 3056 3058 3057 3054 3056 3054 3044 3043 3042 3043 3040 3036 3032
3073 3073 3073 3073 3073 3072 3073 3073 3073 3073 3073 3071 3072 3073 3070 3069 3068 3069 3069 3070 3068 3068 3069 3065 3069 3069 3067 3066 3064 3061 3058 3054 3054 3053 3054 3053 3050 3052 3046 3040 3039 3036 3035 3034 3030 3026 3025